Location: Ebendorf
(52.1827°N, 11.5706°E)
Time: 08:27:31
(UTC+00:00)

CZ-4C R/B - Pass Details

Date: 15 May 2021
Orbit: 463 x 634 km, 98.0° (Epoch: 23 June)

Event Time Altitude Azimuth Distance (km) Brightness Sun altitude
Exits shadow 02:02:29 - 174° (S) 2,635 6.4 -9.7°
Reaches altitude 10° 02:04:10 10° 177° (S) 1,949 5.7 -9.5°
Maximum altitude 02:08:21 61° 258° (WSW) 668 3.5 -9.1°
Drops below altitude 10° 02:12:23 10° 339° (NNW) 1,870 6.4 -8.6°
Sets 02:14:30 0° 343° (NNW) 2,742 7.3 -8.4°
